Location: Saint-Usage
(47.1052°N, 5.2587°E)
Time: 10:56:58
(UTC+01:00)

NOAA 19 - Pass Details

Date: 02 December 2021
Orbit: 841 x 860 km, 99.2° (Epoch: 23 January)

Event Time Altitude Azimuth Distance (km) Brightness Sun altitude
Rises 18:16:54 0° 136° (SE) 3,386 8.1 -14.1°
Reaches altitude 10° 18:19:25 10° 127° (SE) 2,456 7.3 -14.5°
Maximum altitude 18:24:18 35° 64° (ENE) 1,336 5.7 -15.3°
Drops below altitude 10° 18:29:13 10° 0° (N) 2,477 7.5 -16.1°
Sets 18:31:45 0° 352° (N) 3,419 8.3 -16.5°
